Time,TemperatureF,DewpointF,PressureIn,WindDirection,WindDirectionDegrees,WindSpeedMPH,WindSpeedGustMPH,Humidity,HourlyPrecipIn,Conditions,Clouds,dailyrainin,SoftwareType,DateUTC
2013-06-09 00:01:00,61.8,58.5,29.91,WNW,284,0.0,0.0,89,0.00,,,0.00,Wunderground v.1.12,2013-06-09 04:01:00,
2013-06-09 00:03:00,62.6,58.7,29.90,WNW,293,0.0,4.0,87,0.00,,,0.00,Wunderground v.1.12,2013-06-09 04:03:00,
2013-06-09 00:04:00,61.8,58.5,29.91,WNW,284,0.0,0.0,89,0.00,,,0.00,Wunderground v.1.12,2013-06-09 04:04:00,
2013-06-09 00:10:00,61.6,58.3,29.91,WNW,284,0.0,1.0,89,0.00,,,0.00,Wunderground v.1.12,2013-06-09 04:10:00,
2013-06-09 00:12:00,61.6,58.3,29.91,WNW,283,0.0,1.0,89,0.00,,,0.00,Wunderground v.1.12,2013-06-09 04:12:00,
2013-06-09 00:18:00,61.3,58.0,29.91,WNW,284,0.0,0.0,89,0.00,,,0.00,Wunderground v.1.12,2013-06-09 04:18:00,
2013-06-09 00:23:00,61.2,58.2,29.91,WNW,284,0.0,3.0,90,0.00,,,0.00,Wunderground v.1.12,2013-06-09 04:23:00,
2013-06-09 00:28:00,61.2,58.2,29.91,WNW,283,0.0,1.0,90,0.00,,,0.00,Wunderground v.1.12,2013-06-09 04:28:00,
2013-06-09 00:33:00,61.2,58.6,29.93,WNW,284,0.0,3.0,91,0.00,,,0.00,Wunderground v.1.12,2013-06-09 04:33:00,
2013-06-09 00:39:00,61.0,58.4,29.93,WNW,284,0.0,1.0,91,0.00,,,0.00,Wunderground v.1.12,2013-06-09 04:39:00,
2013-06-09 00:44:00,60.9,58.3,29.93,WNW,284,1.0,1.0,91,0.00,,,0.00,Wunderground v.1.12,2013-06-09 04:44:00,
2013-06-09 00:50:00,60.9,58.3,29.93,WNW,284,1.0,2.0,91,0.00,,,0.00,Wunderground v.1.12,2013-06-09 04:50:00,
2013-06-09 00:55:00,61.0,58.4,29.93,WNW,284,1.0,2.0,91,0.00,,,0.00,Wunderground v.1.12,2013-06-09 04:55:00,
2013-06-09 01:01:00,61.2,58.6,29.93,WNW,284,1.0,1.0,91,0.00,,,0.00,Wunderground v.1.12,2013-06-09 05:01:00,
2013-06-09 01:08:00,60.9,58.3,29.93,WNW,283,0.0,1.0,91,0.00,,,0.00,Wunderground v.1.12,2013-06-09 05:08:00,
2013-06-09 01:14:00,60.5,58.2,29.93,WNW,284,0.0,0.0,92,0.00,,,0.00,Wunderground v.1.12,2013-06-09 05:14:00,
2013-06-09 01:20:00,60.5,58.2,29.93,WNW,284,0.0,1.0,92,0.00,,,0.00,Wunderground v.1.12,2013-06-09 05:20:00,
2013-06-09 01:25:00,60.4,58.1,29.93,WNW,284,1.0,2.0,92,0.00,,,0.00,Wunderground v.1.12,2013-06-09 05:25:00,
2013-06-09 01:31:00,60.2,57.9,29.94,WNW,284,1.0,2.0,92,0.00,,,0.00,Wunderground v.1.12,2013-06-09 05:31:00,
2013-06-09 01:36:00,60.4,58.4,29.94,WNW,284,1.0,2.0,93,0.00,,,0.00,Wunderground v.1.12,2013-06-09 05:36:00,
2013-06-09 01:43:00,60.5,58.2,29.94,WNW,283,1.0,2.0,92,0.00,,,0.00,Wunderground v.1.12,2013-06-09 05:43:00,
2013-06-09 01:48:00,60.5,57.9,29.93,WNW,284,0.0,1.0,91,0.00,,,0.00,Wunderground v.1.12,2013-06-09 05:48:00,
2013-06-09 01:53:00,60.4,57.8,29.93,WNW,283,0.0,0.0,91,0.00,,,0.00,Wunderground v.1.12,2013-06-09 05:53:00,
2013-06-09 01:58:00,60.2,57.6,29.93,WNW,284,0.0,0.0,91,0.00,,,0.00,Wunderground v.1.12,2013-06-09 05:58:00,
2013-06-09 02:03:00,60.1,57.5,29.93,WNW,283,0.0,0.0,91,0.00,,,0.00,Wunderground v.1.12,2013-06-09 06:03:00,
2013-06-09 02:09:00,59.8,57.2,29.93,WNW,284,0.0,0.0,91,0.00,,,0.00,Wunderground v.1.12,2013-06-09 06:09:00,
2013-06-09 02:15:00,59.5,57.2,29.93,WNW,283,0.0,0.0,92,0.00,,,0.00,Wunderground v.1.12,2013-06-09 06:15:00,
2013-06-09 02:20:00,59.0,56.7,29.93,WNW,284,0.0,0.0,92,0.00,,,0.00,Wunderground v.1.12,2013-06-09 06:20:00,
2013-06-09 02:26:00,58.6,56.3,29.93,WNW,284,0.0,0.0,92,0.00,,,0.00,Wunderground v.1.12,2013-06-09 06:26:00,
2013-06-09 02:33:00,60.1,57.5,29.93,WNW,293,0.0,5.0,91,0.00,,,0.00,Wunderground v.1.12,2013-06-09 06:33:00,
2013-06-09 02:38:00,57.8,55.8,29.94,WNW,283,0.0,0.0,93,0.00,,,0.00,Wunderground v.1.12,2013-06-09 06:38:00,
2013-06-09 02:43:00,57.6,55.9,29.94,WNW,284,0.0,0.0,94,0.00,,,0.00,Wunderground v.1.12,2013-06-09 06:43:00,
2013-06-09 02:49:00,57.6,55.9,29.94,WNW,284,0.0,0.0,94,0.00,,,0.00,Wunderground v.1.12,2013-06-09 06:49:00,
2013-06-09 02:54:00,57.2,55.5,29.94,WNW,284,0.0,1.0,94,0.00,,,0.00,Wunderground v.1.12,2013-06-09 06:54:00,
2013-06-09 03:00:00,57.5,55.8,29.94,WNW,284,0.0,0.0,94,0.00,,,0.00,Wunderground v.1.12,2013-06-09 07:00:00,
2013-06-09 03:05:00,57.5,56.1,29.95,WNW,283,0.0,2.0,95,0.00,,,0.00,Wunderground v.1.12,2013-06-09 07:05:00,
2013-06-09 03:13:00,57.5,56.1,29.95,WNW,284,0.0,0.0,95,0.00,,,0.00,Wunderground v.1.12,2013-06-09 07:13:00,
2013-06-09 03:22:00,57.3,55.9,29.95,WNW,284,1.0,1.0,95,0.00,,,0.00,Wunderground v.1.12,2013-06-09 07:22:00,
2013-06-09 03:28:00,57.3,55.9,29.95,WNW,284,1.0,1.0,95,0.00,,,0.00,Wunderground v.1.12,2013-06-09 07:28:00,
2013-06-09 03:33:00,57.3,55.9,29.96,WNW,284,1.0,1.0,95,0.00,,,0.00,Wunderground v.1.12,2013-06-09 07:33:00,
2013-06-09 03:38:00,57.3,55.9,29.96,WNW,284,0.0,0.0,95,0.00,,,0.00,Wunderground v.1.12,2013-06-09 07:38:00,
2013-06-09 03:43:00,57.3,55.9,29.96,WNW,284,0.0,0.0,95,0.00,,,0.00,Wunderground v.1.12,2013-06-09 07:43:00,
2013-06-09 03:49:00,57.2,55.8,29.96,WNW,284,0.0,0.0,95,0.00,,,0.00,Wunderground v.1.12,2013-06-09 07:49:00,
2013-06-09 03:54:00,57.2,55.8,29.96,WNW,284,0.0,0.0,95,0.00,,,0.00,Wunderground v.1.12,2013-06-09 07:54:00,
2013-06-09 04:00:00,57.2,55.8,29.96,WNW,284,0.0,0.0,95,0.00,,,0.00,Wunderground v.1.12,2013-06-09 08:00:00,
2013-06-09 04:05:00,57.0,55.6,29.96,WNW,284,0.0,0.0,95,0.00,,,0.00,Wunderground v.1.12,2013-06-09 08:05:00,
2013-06-09 04:10:00,56.9,55.5,29.96,WNW,284,0.0,0.0,95,0.00,,,0.00,Wunderground v.1.12,2013-06-09 08:10:00,
2013-06-09 04:16:00,56.9,55.5,29.96,WNW,284,0.0,0.0,95,0.00,,,0.00,Wunderground v.1.12,2013-06-09 08:16:00,
2013-06-09 04:21:00,56.7,55.3,29.96,WNW,284,0.0,4.0,95,0.00,,,0.00,Wunderground v.1.12,2013-06-09 08:21:00,
2013-06-09 04:28:00,56.9,55.5,29.96,WNW,284,0.0,0.0,95,0.00,,,0.00,Wunderground v.1.12,2013-06-09 08:28:00,
2013-06-09 04:33:00,57.0,55.6,29.96,WNW,293,0.0,2.0,95,0.00,,,0.00,Wunderground v.1.12,2013-06-09 08:33:00,
2013-06-09 04:38:00,57.0,55.3,29.96,WNW,284,0.0,2.0,94,0.00,,,0.00,Wunderground v.1.12,2013-06-09 08:38:00,
2013-06-09 04:43:00,57.0,55.3,29.96,WNW,284,0.0,1.0,94,0.00,,,0.00,Wunderground v.1.12,2013-06-09 08:43:00,
2013-06-09 04:49:00,56.9,55.2,29.96,WNW,284,0.0,0.0,94,0.00,,,0.00,Wunderground v.1.12,2013-06-09 08:49:00,
2013-06-09 04:55:00,56.7,55.0,29.96,WNW,284,0.0,0.0,94,0.00,,,0.00,Wunderground v.1.12,2013-06-09 08:55:00,
2013-06-09 05:01:00,56.3,54.6,29.96,WNW,283,0.0,0.0,94,0.00,,,0.00,Wunderground v.1.12,2013-06-09 09:01:00,
2013-06-09 05:07:00,56.0,54.3,29.96,WNW,284,0.0,0.0,94,0.00,,,0.00,Wunderground v.1.12,2013-06-09 09:07:00,
2013-06-09 05:13:00,55.9,54.2,29.96,WNW,284,0.0,0.0,94,0.00,,,0.00,Wunderground v.1.12,2013-06-09 09:13:00,
2013-06-09 05:18:00,55.9,54.5,29.98,WNW,283,0.0,0.0,95,0.00,,,0.00,Wunderground v.1.12,2013-06-09 09:18:00,
2013-06-09 05:24:00,56.0,54.6,29.98,WNW,284,0.0,0.0,95,0.00,,,0.00,Wunderground v.1.12,2013-06-09 09:24:00,
2013-06-09 05:29:00,56.3,54.9,29.98,WNW,284,0.0,0.0,95,0.00,,,0.00,Wunderground v.1.12,2013-06-09 09:29:00,
2013-06-09 05:35:00,56.5,55.1,29.98,WNW,284,0.0,0.0,95,0.00,,,0.00,Wunderground v.1.12,2013-06-09 09:35:00,
2013-06-09 05:40:00,56.6,55.2,29.98,WNW,284,0.0,0.0,95,0.00,,,0.00,Wunderground v.1.12,2013-06-09 09:40:00,
2013-06-09 05:46:00,56.6,55.2,29.98,WNW,284,0.0,0.0,95,0.00,,,0.00,Wunderground v.1.12,2013-06-09 09:46:00,
2013-06-09 05:51:00,56.6,55.2,29.98,WNW,283,0.0,0.0,95,0.00,,,0.00,Wunderground v.1.12,2013-06-09 09:51:00,
2013-06-09 05:56:00,56.7,55.3,29.98,WNW,284,0.0,0.0,95,0.00,,,0.00,Wunderground v.1.12,2013-06-09 09:56:00,
2013-06-09 06:03:00,56.5,55.1,29.98,WNW,293,0.0,3.0,95,0.00,,,0.00,Wunderground v.1.12,2013-06-09 10:03:00,
2013-06-09 06:08:00,56.7,55.3,29.98,WNW,284,0.0,1.0,95,0.00,,,0.00,Wunderground v.1.12,2013-06-09 10:08:00,
2013-06-09 06:13:00,56.7,55.3,29.98,WNW,284,0.0,0.0,95,0.00,,,0.00,Wunderground v.1.12,2013-06-09 10:13:00,
2013-06-09 06:18:00,56.9,55.5,29.98,WNW,284,0.0,0.0,95,0.00,,,0.00,Wunderground v.1.12,2013-06-09 10:18:00,
2013-06-09 06:24:00,57.0,55.9,29.98,WNW,284,0.0,0.0,96,0.00,,,0.00,Wunderground v.1.12,2013-06-09 10:24:00,
2013-06-09 06:29:00,57.2,56.1,29.98,WNW,284,0.0,0.0,96,0.00,,,0.00,Wunderground v.1.12,2013-06-09 10:29:00,
2013-06-09 06:35:00,57.5,56.4,29.98,WNW,284,0.0,0.0,96,0.00,,,0.00,Wunderground v.1.12,2013-06-09 10:35:00,
2013-06-09 06:41:00,58.0,56.9,29.98,WNW,283,0.0,1.0,96,0.00,,,0.00,Wunderground v.1.12,2013-06-09 10:41:00,
2013-06-09 06:46:00,58.4,57.3,29.99,WNW,283,0.0,2.0,96,0.00,,,0.00,Wunderground v.1.12,2013-06-09 10:46:00,
2013-06-09 06:51:00,58.7,57.3,29.99,WNW,284,0.0,1.0,95,0.00,,,0.00,Wunderground v.1.12,2013-06-09 10:51:00,
2013-06-09 06:58:00,59.3,57.9,29.99,WNW,284,1.0,3.0,95,0.00,,,0.00,Wunderground v.1.12,2013-06-09 10:58:00,
2013-06-09 07:03:00,57.2,56.1,29.98,WNW,293,0.0,1.0,96,0.00,,,0.00,Wunderground v.1.12,2013-06-09 11:03:00,
2013-06-09 07:08:00,60.4,58.1,30.00,WNW,284,2.0,3.0,92,0.00,,,0.00,Wunderground v.1.12,2013-06-09 11:08:00,
2013-06-09 07:13:00,60.9,57.9,30.00,WNW,283,2.0,2.0,90,0.00,,,0.00,Wunderground v.1.12,2013-06-09 11:13:00,
2013-06-09 07:18:00,61.3,57.7,30.00,WNW,284,2.0,5.0,88,0.00,,,0.00,Wunderground v.1.12,2013-06-09 11:18:00,
2013-06-09 07:24:00,61.8,57.6,30.00,West,281,3.0,7.0,86,0.00,,,0.00,Wunderground v.1.12,2013-06-09 11:24:00,
2013-06-09 07:30:00,62.3,57.7,30.00,West,275,4.0,4.0,85,0.00,,,0.00,Wunderground v.1.12,2013-06-09 11:30:00,
2013-06-09 07:35:00,62.6,57.4,30.00,West,274,4.0,5.0,83,0.00,,,0.00,Wunderground v.1.12,2013-06-09 11:35:00,
2013-06-09 07:40:00,63.1,57.5,30.00,West,261,4.0,8.0,82,0.00,,,0.00,Wunderground v.1.12,2013-06-09 11:40:00,
2013-06-09 07:48:00,63.4,57.5,30.01,WNW,287,4.0,5.0,81,0.00,,,0.00,Wunderground v.1.12,2013-06-09 11:48:00,
2013-06-09 07:53:00,63.7,58.1,30.01,West,267,4.0,6.0,82,0.00,,,0.00,Wunderground v.1.12,2013-06-09 11:53:00,
2013-06-09 07:59:00,64.2,58.2,30.01,West,268,3.0,3.0,81,0.00,,,0.00,Wunderground v.1.12,2013-06-09 11:59:00,
2013-06-09 08:05:00,64.5,58.2,30.01,West,268,2.0,4.0,80,0.00,,,0.00,Wunderground v.1.12,2013-06-09 12:05:00,
2013-06-09 08:10:00,64.8,58.1,30.01,West,265,3.0,4.0,79,0.00,,,0.00,Wunderground v.1.12,2013-06-09 12:10:00,
2013-06-09 08:15:00,65.2,58.2,30.01,West,265,2.0,4.0,78,0.00,,,0.00,Wunderground v.1.12,2013-06-09 12:15:00,
2013-06-09 08:21:00,65.5,58.5,30.01,WNW,299,2.0,5.0,78,0.00,,,0.00,Wunderground v.1.12,2013-06-09 12:21:00,
2013-06-09 08:28:00,65.8,58.7,30.01,WNW,291,4.0,4.0,78,0.00,,,0.00,Wunderground v.1.12,2013-06-09 12:28:00,
2013-06-09 08:33:00,66.0,58.6,30.02,WNW,284,4.0,9.0,77,0.00,,,0.00,Wunderground v.1.12,2013-06-09 12:33:00,
2013-06-09 08:38:00,66.3,58.5,30.02,WNW,291,3.0,5.0,76,0.00,,,0.00,Wunderground v.1.12,2013-06-09 12:38:00,
2013-06-09 08:44:00,66.6,58.8,30.02,WNW,291,3.0,3.0,76,0.00,,,0.00,Wunderground v.1.12,2013-06-09 12:44:00,
2013-06-09 08:49:00,67.1,58.9,30.02,WNW,292,2.0,2.0,75,0.00,,,0.00,Wunderground v.1.12,2013-06-09 12:49:00,
2013-06-09 08:54:00,66.9,58.3,30.02,WNW,284,4.0,4.0,74,0.00,,,0.00,Wunderground v.1.12,2013-06-09 12:54:00,
2013-06-09 09:00:00,67.1,58.2,30.02,WNW,296,5.0,5.0,73,0.00,,,0.00,Wunderground v.1.12,2013-06-09 13:00:00,
2013-06-09 09:05:00,67.4,58.1,30.02,West,273,4.0,5.0,72,0.00,,,0.00,Wunderground v.1.12,2013-06-09 13:05:00,
2013-06-09 09:10:00,67.8,58.8,30.02,West,277,4.0,6.0,73,0.00,,,0.00,Wunderground v.1.12,2013-06-09 13:10:00,
2013-06-09 09:18:00,68.3,58.1,30.02,WSW,255,4.0,6.0,70,0.00,,,0.00,Wunderground v.1.12,2013-06-09 13:18:00,
2013-06-09 09:23:00,68.6,58.0,30.02,WSW,257,3.0,4.0,69,0.00,,,0.00,Wunderground v.1.12,2013-06-09 13:23:00,
2013-06-09 09:28:00,68.4,57.0,30.02,WSW,248,3.0,6.0,67,0.00,,,0.00,Wunderground v.1.12,2013-06-09 13:28:00,
2013-06-09 09:34:00,68.9,57.5,30.01,WNW,282,4.0,5.0,67,0.00,,,0.00,Wunderground v.1.12,2013-06-09 13:34:00,
2013-06-09 09:40:00,69.3,57.9,30.01,WSW,249,3.0,4.0,67,0.00,,,0.00,Wunderground v.1.12,2013-06-09 13:40:00,
2013-06-09 09:48:00,69.3,56.2,30.02,WNW,290,5.0,6.0,63,0.00,,,0.00,Wunderground v.1.12,2013-06-09 13:48:00,
2013-06-09 09:53:00,69.6,57.3,30.02,West,277,4.0,5.0,65,0.00,,,0.00,Wunderground v.1.12,2013-06-09 13:53:00,
2013-06-09 09:59:00,69.8,57.1,30.02,WSW,240,4.0,4.0,64,0.00,,,0.00,Wunderground v.1.12,2013-06-09 13:59:00,
2013-06-09 10:04:00,69.8,55.7,30.02,WSW,251,5.0,5.0,61,0.00,,,0.00,Wunderground v.1.12,2013-06-09 14:04:00,
2013-06-09 10:10:00,70.4,58.1,30.02,WNW,298,6.0,8.0,65,0.00,,,0.00,Wunderground v.1.12,2013-06-09 14:10:00,
2013-06-09 10:16:00,71.1,56.5,30.02,NNW,333,4.0,12.0,60,0.00,,,0.00,Wunderground v.1.12,2013-06-09 14:16:00,
2013-06-09 10:23:00,70.4,56.8,30.02,WSW,248,5.0,7.0,62,0.00,,,0.00,Wunderground v.1.12,2013-06-09 14:23:00,
2013-06-09 10:28:00,69.9,56.7,30.02,WSW,258,6.0,10.0,63,0.00,,,0.00,Wunderground v.1.12,2013-06-09 14:28:00,
2013-06-09 10:33:00,70.1,56.9,30.02,West,270,4.0,13.0,63,0.00,,,0.00,Wunderground v.1.12,2013-06-09 14:33:00,
2013-06-09 10:43:00,71.1,57.0,30.02,WSW,247,3.0,4.0,61,0.00,,,0.00,Wunderground v.1.12,2013-06-09 14:43:00,
2013-06-09 10:48:00,71.6,57.0,30.01,West,269,3.0,3.0,60,0.00,,,0.00,Wunderground v.1.12,2013-06-09 14:48:00,
2013-06-09 10:54:00,71.8,56.2,30.01,WNW,300,3.0,5.0,58,0.00,,,0.00,Wunderground v.1.12,2013-06-09 14:54:00,
2013-06-09 10:59:00,72.1,56.5,30.01,NW,318,3.0,4.0,58,0.00,,,0.00,Wunderground v.1.12,2013-06-09 14:59:00,
2013-06-09 11:05:00,72.7,56.1,30.01,NW,308,2.0,6.0,56,0.00,,,0.00,Wunderground v.1.12,2013-06-09 15:05:00,
2013-06-09 11:10:00,72.5,56.4,30.01,WNW,292,3.0,3.0,57,0.00,,,0.00,Wunderground v.1.12,2013-06-09 15:10:00,
2013-06-09 11:15:00,73.0,56.9,30.01,WSW,248,4.0,4.0,57,0.00,,,0.00,Wunderground v.1.12,2013-06-09 15:15:00,
2013-06-09 11:20:00,73.0,55.4,30.01,West,270,4.0,11.0,54,0.00,,,0.00,Wunderground v.1.12,2013-06-09 15:20:00,
2013-06-09 11:26:00,73.2,55.6,30.01,West,280,4.0,4.0,54,0.00,,,0.00,Wunderground v.1.12,2013-06-09 15:26:00,
2013-06-09 11:31:00,73.7,56.0,30.01,NW,304,3.0,4.0,54,0.00,,,0.00,Wunderground v.1.12,2013-06-09 15:31:00,
2013-06-09 11:38:00,73.9,56.7,30.01,WNW,295,4.0,7.0,55,0.00,,,0.00,Wunderground v.1.12,2013-06-09 15:38:00,
2013-06-09 11:43:00,73.2,54.5,30.01,SW,224,5.0,10.0,52,0.00,,,0.00,Wunderground v.1.12,2013-06-09 15:43:00,
2013-06-09 11:48:00,72.8,54.7,30.01,West,271,6.0,6.0,53,0.00,,,0.00,Wunderground v.1.12,2013-06-09 15:48:00,
2013-06-09 11:54:00,72.5,55.4,30.01,WSW,247,5.0,5.0,55,0.00,,,0.00,Wunderground v.1.12,2013-06-09 15:54:00,
2013-06-09 11:59:00,73.5,55.8,30.01,West,278,4.0,4.0,54,0.00,,,0.00,Wunderground v.1.12,2013-06-09 15:59:00,
2013-06-09 12:05:00,74.2,54.9,30.00,WSW,244,3.0,3.0,51,0.00,,,0.00,Wunderground v.1.12,2013-06-09 16:05:00,
2013-06-09 12:10:00,73.9,55.7,30.00,West,272,3.0,3.0,53,0.00,,,0.00,Wunderground v.1.12,2013-06-09 16:10:00,
2013-06-09 12:15:00,74.6,55.3,30.00,WNW,298,4.0,9.0,51,0.00,,,0.00,Wunderground v.1.12,2013-06-09 16:15:00,
2013-06-09 12:20:00,74.7,54.8,30.00,West,280,4.0,11.0,50,0.00,,,0.00,Wunderground v.1.12,2013-06-09 16:20:00,
2013-06-09 12:26:00,74.2,53.8,30.00,WSW,257,5.0,9.0,49,0.00,,,0.00,Wunderground v.1.12,2013-06-09 16:26:00,
2013-06-09 12:32:00,74.0,56.3,30.00,WSW,248,5.0,14.0,54,0.00,,,0.00,Wunderground v.1.12,2013-06-09 16:32:00,
2013-06-09 12:38:00,74.9,55.6,30.00,WSW,258,4.0,10.0,51,0.00,,,0.00,Wunderground v.1.12,2013-06-09 16:38:00,
2013-06-09 12:43:00,75.1,55.7,30.00,WSW,251,6.0,8.0,51,0.00,,,0.00,Wunderground v.1.12,2013-06-09 16:43:00,
2013-06-09 12:48:00,75.4,52.6,29.99,WNW,289,5.0,9.0,45,0.00,,,0.00,Wunderground v.1.12,2013-06-09 16:48:00,
2013-06-09 12:53:00,75.1,55.7,29.99,West,277,5.0,6.0,51,0.00,,,0.00,Wunderground v.1.12,2013-06-09 16:53:00,
2013-06-09 12:59:00,74.6,54.2,29.99,West,275,5.0,5.0,49,0.00,,,0.00,Wunderground v.1.12,2013-06-09 16:59:00,
2013-06-09 13:04:00,74.6,55.3,29.99,West,263,3.0,6.0,51,0.00,,,0.00,Wunderground v.1.12,2013-06-09 17:04:00,
2013-06-09 13:09:00,74.4,55.1,29.99,WSW,251,3.0,3.0,51,0.00,,,0.00,Wunderground v.1.12,2013-06-09 17:09:00,
2013-06-09 13:15:00,75.3,57.5,29.99,WNW,296,4.0,13.0,54,0.00,,,0.00,Wunderground v.1.12,2013-06-09 17:15:00,
2013-06-09 13:20:00,76.0,56.0,29.99,NW,311,6.0,9.0,50,0.00,,,0.00,Wunderground v.1.12,2013-06-09 17:20:00,
2013-06-09 13:26:00,76.3,55.2,29.99,West,271,6.0,7.0,48,0.00,,,0.00,Wunderground v.1.12,2013-06-09 17:26:00,
2013-06-09 13:31:00,76.8,55.0,29.99,WSW,250,5.0,6.0,47,0.00,,,0.00,Wunderground v.1.12,2013-06-09 17:31:00,
2013-06-09 13:38:00,77.0,54.6,29.99,SW,234,6.0,7.0,46,0.00,,,0.00,Wunderground v.1.12,2013-06-09 17:38:00,
2013-06-09 13:43:00,77.0,54.0,29.99,West,273,7.0,15.0,45,0.00,,,0.00,Wunderground v.1.12,2013-06-09 17:43:00,
2013-06-09 13:49:00,76.5,53.6,29.99,West,269,8.0,8.0,45,0.00,,,0.00,Wunderground v.1.12,2013-06-09 17:49:00,
2013-06-09 13:54:00,76.3,55.2,29.99,West,270,6.0,6.0,48,0.00,,,0.00,Wunderground v.1.12,2013-06-09 17:54:00,
2013-06-09 14:00:00,76.8,53.8,29.99,WSW,253,4.0,5.0,45,0.00,,,0.00,Wunderground v.1.12,2013-06-09 18:00:00,
2013-06-09 14:05:00,77.0,54.0,29.98,WNW,294,5.0,10.0,45,0.00,,,0.00,Wunderground v.1.12,2013-06-09 18:05:00,
2013-06-09 14:11:00,77.0,53.4,29.98,WSW,250,6.0,11.0,44,0.00,,,0.00,Wunderground v.1.12,2013-06-09 18:11:00,
2013-06-09 14:16:00,77.0,52.1,29.98,WNW,288,7.0,9.0,42,0.00,,,0.00,Wunderground v.1.12,2013-06-09 18:16:00,
2013-06-09 14:21:00,77.0,54.6,29.98,WSW,254,7.0,8.0,46,0.00,,,0.00,Wunderground v.1.12,2013-06-09 18:21:00,
2013-06-09 14:28:00,76.7,53.1,29.98,NW,307,6.0,8.0,44,0.00,,,0.00,Wunderground v.1.12,2013-06-09 18:28:00,
2013-06-09 14:33:00,76.7,52.5,29.98,West,281,6.0,11.0,43,0.00,,,0.00,Wunderground v.1.12,2013-06-09 18:33:00,
2013-06-09 14:38:00,76.3,54.6,29.98,West,281,7.0,9.0,47,0.00,,,0.00,Wunderground v.1.12,2013-06-09 18:38:00,
2013-06-09 14:43:00,76.7,56.1,29.98,NW,311,6.0,7.0,49,0.00,,,0.00,Wunderground v.1.12,2013-06-09 18:43:00,
2013-06-09 14:48:00,77.2,54.8,29.98,WNW,300,5.0,15.0,46,0.00,,,0.00,Wunderground v.1.12,2013-06-09 18:48:00,
2013-06-09 14:54:00,77.4,53.8,29.98,WNW,288,7.0,9.0,44,0.00,,,0.00,Wunderground v.1.12,2013-06-09 18:54:00,
2013-06-09 14:59:00,76.8,53.2,29.98,West,261,8.0,8.0,44,0.00,,,0.00,Wunderground v.1.12,2013-06-09 18:59:00,
2013-06-09 15:05:00,76.8,55.0,29.98,West,277,8.0,8.0,47,0.00,,,0.00,Wunderground v.1.12,2013-06-09 19:05:00,
2013-06-09 15:13:00,77.4,52.5,29.98,WSW,256,7.0,9.0,42,0.00,,,0.00,Wunderground v.1.12,2013-06-09 19:13:00,
2013-06-09 15:18:00,77.7,54.0,29.98,WSW,257,6.0,10.0,44,0.00,,,0.00,Wunderground v.1.12,2013-06-09 19:18:00,
2013-06-09 15:24:00,77.7,53.4,29.98,West,261,5.0,5.0,43,0.00,,,0.00,Wunderground v.1.12,2013-06-09 19:24:00,
2013-06-09 15:29:00,77.9,53.0,29.98,WNW,285,6.0,6.0,42,0.00,,,0.00,Wunderground v.1.12,2013-06-09 19:29:00,
2013-06-09 15:35:00,78.5,57.7,29.98,West,269,5.0,9.0,49,0.00,,,0.00,Wunderground v.1.12,2013-06-09 19:35:00,
2013-06-09 15:40:00,79.0,55.8,29.98,West,277,4.0,4.0,45,0.00,,,0.00,Wunderground v.1.12,2013-06-09 19:40:00,
2013-06-09 15:46:00,78.8,52.4,29.98,WNW,294,5.0,12.0,40,0.00,,,0.00,Wunderground v.1.12,2013-06-09 19:46:00,
2013-06-09 15:52:00,78.5,52.8,29.98,WSW,254,7.0,13.0,41,0.00,,,0.00,Wunderground v.1.12,2013-06-09 19:52:00,
2013-06-09 15:58:00,77.2,52.3,29.98,WNW,296,6.0,9.0,42,0.00,,,0.00,Wunderground v.1.12,2013-06-09 19:58:00,
2013-06-09 16:03:00,76.5,54.2,29.98,NW,304,5.0,6.0,46,0.00,,,0.00,Wunderground v.1.12,2013-06-09 20:03:00,
2013-06-09 16:08:00,76.5,52.3,29.98,West,270,5.0,11.0,43,0.00,,,0.00,Wunderground v.1.12,2013-06-09 20:08:00,
2013-06-09 16:13:00,77.2,53.0,29.98,West,281,5.0,6.0,43,0.00,,,0.00,Wunderground v.1.12,2013-06-09 20:13:00,
2013-06-09 16:19:00,77.6,56.4,29.98,WSW,257,4.0,4.0,48,0.00,,,0.00,Wunderground v.1.12,2013-06-09 20:19:00,
2013-06-09 16:25:00,77.6,52.7,29.98,West,260,6.0,9.0,42,0.00,,,0.00,Wunderground v.1.12,2013-06-09 20:25:00,
2013-06-09 16:30:00,77.6,53.3,29.98,West,269,6.0,6.0,43,0.00,,,0.00,Wunderground v.1.12,2013-06-09 20:30:00,
2013-06-09 16:36:00,77.9,53.0,29.98,SW,233,4.0,5.0,42,0.00,,,0.00,Wunderground v.1.12,2013-06-09 20:36:00,
2013-06-09 16:43:00,77.7,52.8,29.98,WNW,282,7.0,12.0,42,0.00,,,0.00,Wunderground v.1.12,2013-06-09 20:43:00,
2013-06-09 16:48:00,77.4,51.9,29.99,WSW,257,7.0,9.0,41,0.00,,,0.00,Wunderground v.1.12,2013-06-09 20:48:00,
2013-06-09 16:54:00,76.3,52.8,29.99,West,267,5.0,5.0,44,0.00,,,0.00,Wunderground v.1.12,2013-06-09 20:54:00,
2013-06-09 16:59:00,76.5,53.6,29.99,West,281,4.0,4.0,45,0.00,,,0.00,Wunderground v.1.12,2013-06-09 20:59:00,
2013-06-09 17:04:00,76.5,53.0,29.99,West,271,3.0,6.0,44,0.00,,,0.00,Wunderground v.1.12,2013-06-09 21:04:00,
2013-06-09 17:10:00,77.4,55.6,29.99,West,276,3.0,4.0,47,0.00,,,0.00,Wunderground v.1.12,2013-06-09 21:10:00,
2013-06-09 17:18:00,78.1,53.1,29.99,WNW,294,2.0,6.0,42,0.00,,,0.00,Wunderground v.1.12,2013-06-09 21:18:00,
2013-06-09 17:23:00,77.4,55.0,29.99,WNW,294,1.0,2.0,46,0.00,,,0.00,Wunderground v.1.12,2013-06-09 21:23:00,
2013-06-09 17:28:00,76.3,52.8,29.99,WNW,293,1.0,1.0,44,0.00,,,0.00,Wunderground v.1.12,2013-06-09 21:28:00,
2013-06-09 17:33:00,76.5,53.0,29.99,West,270,5.0,17.0,44,0.00,,,0.00,Wunderground v.1.12,2013-06-09 21:33:00,
2013-06-09 17:39:00,75.6,54.5,29.99,WNW,292,1.0,1.0,48,0.00,,,0.00,Wunderground v.1.12,2013-06-09 21:39:00,
2013-06-09 17:44:00,75.6,58.3,29.99,WNW,292,1.0,3.0,55,0.00,,,0.00,Wunderground v.1.12,2013-06-09 21:44:00,
2013-06-09 17:50:00,76.3,54.6,29.99,WNW,289,1.0,1.0,47,0.00,,,0.00,Wunderground v.1.12,2013-06-09 21:50:00,
2013-06-09 17:58:00,76.7,53.8,29.99,West,268,2.0,6.0,45,0.00,,,0.00,Wunderground v.1.12,2013-06-09 21:58:00,
2013-06-09 18:06:00,76.0,54.3,29.99,West,270,2.0,9.0,47,0.00,,,0.00,Wunderground v.1.12,2013-06-09 22:06:00,
2013-06-09 18:13:00,77.6,54.0,29.99,West,271,3.0,3.0,44,0.00,,,0.00,Wunderground v.1.12,2013-06-09 22:13:00,
2013-06-09 18:18:00,77.4,53.8,29.99,WNW,284,3.0,7.0,44,0.00,,,0.00,Wunderground v.1.12,2013-06-09 22:18:00,
2013-06-09 18:23:00,76.8,53.8,29.99,WNW,283,2.0,3.0,45,0.00,,,0.00,Wunderground v.1.12,2013-06-09 22:23:00,
2013-06-09 18:29:00,75.8,52.9,29.99,West,279,2.0,2.0,45,0.00,,,0.00,Wunderground v.1.12,2013-06-09 22:29:00,
2013-06-09 18:34:00,76.0,52.5,30.00,WNW,286,3.0,9.0,44,0.00,,,0.00,Wunderground v.1.12,2013-06-09 22:34:00,
2013-06-09 18:39:00,76.3,54.0,30.00,WNW,286,3.0,3.0,46,0.00,,,0.00,Wunderground v.1.12,2013-06-09 22:39:00,
2013-06-09 18:45:00,76.3,55.2,30.00,WNW,284,2.0,4.0,48,0.00,,,0.00,Wunderground v.1.12,2013-06-09 22:45:00,
2013-06-09 18:50:00,76.3,53.4,30.00,WNW,292,2.0,5.0,45,0.00,,,0.00,Wunderground v.1.12,2013-06-09 22:50:00,
2013-06-09 18:56:00,76.7,55.0,30.00,WNW,292,1.0,1.0,47,0.00,,,0.00,Wunderground v.1.12,2013-06-09 22:56:00,
2013-06-09 19:01:00,76.8,56.2,30.00,WNW,292,0.0,1.0,49,0.00,,,0.00,Wunderground v.1.12,2013-06-09 23:01:00,
2013-06-09 19:07:00,77.0,54.0,30.00,WNW,292,0.0,1.0,45,0.00,,,0.00,Wunderground v.1.12,2013-06-09 23:07:00,
2013-06-09 19:13:00,76.8,56.2,30.00,WNW,292,1.0,2.0,49,0.00,,,0.00,Wunderground v.1.12,2013-06-09 23:13:00,
2013-06-09 19:18:00,76.8,53.8,30.01,WNW,292,0.0,1.0,45,0.00,,,0.00,Wunderground v.1.12,2013-06-09 23:18:00,
2013-06-09 19:23:00,76.1,55.5,30.01,WNW,292,0.0,2.0,49,0.00,,,0.00,Wunderground v.1.12,2013-06-09 23:23:00,
2013-06-09 19:28:00,75.8,54.1,30.01,WNW,292,0.0,1.0,47,0.00,,,0.00,Wunderground v.1.12,2013-06-09 23:28:00,
2013-06-09 19:33:00,75.6,54.5,30.01,WNW,292,1.0,3.0,48,0.00,,,0.00,Wunderground v.1.12,2013-06-09 23:33:00,
2013-06-09 19:38:00,75.4,53.8,30.01,WNW,292,0.0,1.0,47,0.00,,,0.00,Wunderground v.1.12,2013-06-09 23:38:00,
2013-06-09 19:43:00,75.4,53.8,30.01,WNW,292,0.0,0.0,47,0.00,,,0.00,Wunderground v.1.12,2013-06-09 23:43:00,
2013-06-09 19:48:00,75.4,53.8,30.01,WNW,292,0.0,0.0,47,0.00,,,0.00,Wunderground v.1.12,2013-06-09 23:48:00,
2013-06-09 19:54:00,75.4,56.5,30.01,WNW,292,0.0,0.0,52,0.00,,,0.00,Wunderground v.1.12,2013-06-09 23:54:00,
2013-06-09 19:59:00,74.4,56.7,30.01,WNW,292,0.0,0.0,54,0.00,,,0.00,Wunderground v.1.12,2013-06-09 23:59:00,
2013-06-09 20:04:00,73.5,56.8,30.02,WNW,292,0.0,0.0,56,0.00,,,0.00,Wunderground v.1.12,2013-06-10 00:04:00,
2013-06-09 20:10:00,72.8,56.7,30.02,WNW,292,0.0,0.0,57,0.00,,,0.00,Wunderground v.1.12,2013-06-10 00:10:00,
2013-06-09 20:15:00,72.1,56.5,30.02,WNW,292,0.0,0.0,58,0.00,,,0.00,Wunderground v.1.12,2013-06-10 00:15:00,
2013-06-09 20:23:00,71.1,55.6,30.02,WNW,292,0.0,0.0,58,0.00,,,0.00,Wunderground v.1.12,2013-06-10 00:23:00,
2013-06-09 20:28:00,70.6,55.6,30.02,WNW,292,0.0,0.0,59,0.00,,,0.00,Wunderground v.1.12,2013-06-10 00:28:00,
2013-06-09 20:34:00,69.9,55.8,30.02,WNW,292,0.0,0.0,61,0.00,,,0.00,Wunderground v.1.12,2013-06-10 00:34:00,
2013-06-09 20:40:00,69.1,56.4,30.02,WNW,292,0.0,0.0,64,0.00,,,0.00,Wunderground v.1.12,2013-06-10 00:40:00,
2013-06-09 20:45:00,68.4,56.6,30.02,WNW,292,0.0,0.0,66,0.00,,,0.00,Wunderground v.1.12,2013-06-10 00:45:00,
2013-06-09 20:52:00,67.4,56.5,30.02,WNW,292,0.0,0.0,68,0.00,,,0.00,Wunderground v.1.12,2013-06-10 00:52:00,
2013-06-09 20:58:00,66.6,56.5,30.02,WNW,292,0.0,0.0,70,0.00,,,0.00,Wunderground v.1.12,2013-06-10 00:58:00,
2013-06-09 21:03:00,66.0,56.7,30.03,WNW,292,0.0,0.0,72,0.00,,,0.00,Wunderground v.1.12,2013-06-10 01:03:00,
2013-06-09 21:09:00,65.3,56.4,30.03,WNW,292,0.0,0.0,73,0.00,,,0.00,Wunderground v.1.12,2013-06-10 01:09:00,
2013-06-09 21:14:00,65.0,56.5,30.03,WNW,292,0.0,0.0,74,0.00,,,0.00,Wunderground v.1.12,2013-06-10 01:14:00,
2013-06-09 21:20:00,64.7,56.6,30.04,WNW,292,0.0,0.0,75,0.00,,,0.00,Wunderground v.1.12,2013-06-10 01:20:00,
2013-06-09 21:25:00,64.3,56.6,30.04,WNW,292,0.0,0.0,76,0.00,,,0.00,Wunderground v.1.12,2013-06-10 01:25:00,
2013-06-09 21:31:00,63.5,56.2,30.04,WNW,292,0.0,0.0,77,0.00,,,0.00,Wunderground v.1.12,2013-06-10 01:31:00,
2013-06-09 21:36:00,63.1,55.8,30.04,WNW,292,0.0,0.0,77,0.00,,,0.00,Wunderground v.1.12,2013-06-10 01:36:00,
2013-06-09 21:43:00,63.1,56.1,30.04,WNW,292,0.0,0.0,78,0.00,,,0.00,Wunderground v.1.12,2013-06-10 01:43:00,
2013-06-09 21:48:00,63.1,55.8,30.05,WNW,292,0.0,0.0,77,0.00,,,0.00,Wunderground v.1.12,2013-06-10 01:48:00,
2013-06-09 21:53:00,63.1,56.1,30.05,WNW,292,0.0,0.0,78,0.00,,,0.00,Wunderground v.1.12,2013-06-10 01:53:00,
2013-06-09 21:59:00,62.7,55.7,30.05,WNW,292,0.0,0.0,78,0.00,,,0.00,Wunderground v.1.12,2013-06-10 01:59:00,
2013-06-09 22:04:00,62.6,55.6,30.05,WNW,292,0.0,0.0,78,0.00,,,0.00,Wunderground v.1.12,2013-06-10 02:04:00,
2013-06-09 22:09:00,62.3,56.0,30.05,WNW,292,0.0,0.0,80,0.00,,,0.00,Wunderground v.1.12,2013-06-10 02:09:00,
2013-06-09 22:14:00,61.8,55.6,30.05,WNW,292,0.0,0.0,80,0.00,,,0.00,Wunderground v.1.12,2013-06-10 02:14:00,
2013-06-09 22:20:00,61.6,55.4,30.06,WNW,292,0.0,0.0,80,0.00,,,0.00,Wunderground v.1.12,2013-06-10 02:20:00,
2013-06-09 22:28:00,61.6,55.4,30.06,WNW,292,0.0,0.0,80,0.00,,,0.00,Wunderground v.1.12,2013-06-10 02:28:00,
2013-06-09 22:33:00,61.6,55.4,30.06,WNW,292,0.0,0.0,80,0.00,,,0.00,Wunderground v.1.12,2013-06-10 02:33:00,
2013-06-09 22:39:00,61.3,55.1,30.06,WNW,292,0.0,0.0,80,0.00,,,0.00,Wunderground v.1.12,2013-06-10 02:39:00,
2013-06-09 22:45:00,61.2,55.0,30.06,WNW,292,0.0,0.0,80,0.00,,,0.00,Wunderground v.1.12,2013-06-10 02:45:00,
2013-06-09 22:50:00,61.2,55.3,30.07,WNW,292,0.0,0.0,81,0.00,,,0.00,Wunderground v.1.12,2013-06-10 02:50:00,
2013-06-09 22:58:00,61.0,55.5,30.07,WNW,292,0.0,0.0,82,0.00,,,0.00,Wunderground v.1.12,2013-06-10 02:58:00,
2013-06-09 23:03:00,61.6,55.4,30.06,N/A,-737280,0.0,0.0,80,0.00,,,0.00,Wunderground v.1.12,2013-06-10 03:03:00,
2013-06-09 23:08:00,60.4,54.5,30.07,WNW,292,0.0,1.0,81,0.00,,,0.00,Wunderground v.1.12,2013-06-10 03:08:00,
2013-06-09 23:13:00,60.7,54.5,30.07,WNW,292,0.0,0.0,80,0.00,,,0.00,Wunderground v.1.12,2013-06-10 03:13:00,
2013-06-09 23:19:00,60.7,54.8,30.07,WNW,292,0.0,0.0,81,0.00,,,0.00,Wunderground v.1.12,2013-06-10 03:19:00,
2013-06-09 23:24:00,60.7,54.8,30.07,WNW,292,0.0,0.0,81,0.00,,,0.00,Wunderground v.1.12,2013-06-10 03:24:00,
2013-06-09 23:29:00,60.5,54.3,30.07,WNW,292,0.0,0.0,80,0.00,,,0.00,Wunderground v.1.12,2013-06-10 03:29:00,
2013-06-09 23:35:00,60.7,54.5,30.07,WNW,292,0.0,0.0,80,0.00,,,0.00,Wunderground v.1.12,2013-06-10 03:35:00,
2013-06-09 23:41:00,60.9,54.0,30.07,WNW,292,0.0,0.0,78,0.00,,,0.00,Wunderground v.1.12,2013-06-10 03:41:00,
2013-06-09 23:48:00,61.5,53.9,30.08,WNW,292,0.0,0.0,76,0.00,,,0.00,Wunderground v.1.12,2013-06-10 03:48:00,
2013-06-09 23:53:00,61.8,54.2,30.08,WNW,292,0.0,0.0,76,0.00,,,0.00,Wunderground v.1.12,2013-06-10 03:53:00,
2013-06-09 23:59:00,61.6,54.0,30.08,WNW,292,0.0,0.0,76,0.00,,,0.00,Wunderground v.1.12,2013-06-10 03:59:00,